Mattaponi, VA

3:30 PM EST on December 06, 2016 (GMT -0500)
West Point

Weather History for KFYJ - July, 2013

Change the Weather History Date:

Tuesday, July 16, 2013

  Actual Average (KJGG) Record (KJGG)
Temperature  
Mean Temperature 84 °F -  
Max Temperature 93 °F 89 °F 100 °F (2010)
Min Temperature 75 °F 68 °F 58 °F (1960)
Cooling Degree Days 19    
Growing Degree Days 34 (Base 50)    
Moisture  
Dew Point 76 °F    
Average Humidity 81    
Maximum Humidity 99    
Minimum Humidity 54    
Precipitation  
Precipitation 0.00 in - - ()
Sea Level Pressure  
Sea Level Pressure 30.22 in    
Wind  
Wind Speed 2 mph (NW)    
Max Wind Speed 7 mph    
Max Gust Speed -    
Visibility 10 miles    
Events      
Averages and records for this station are not official NWS values.
T = Trace of Precipitation, MM = Missing Value Source: NWS Daily Summary

Daily Weather History Graph

Daily Weather History Graph

Search for Another Location

Airport or City:

Trip Planner

Search our weather history database for the weather conditions in past years. The results will help you decide how hot, cold, wet, or windy it might be!

Date:

Astronomy

Jul. 16, 2013 Rise Set
Actual Time 5:58 AM EDT 8:27 PM EDT
Civil Twilight 5:28 AM EDT 8:57 PM EDT
Nautical Twilight 4:51 AM EDT 9:34 PM EDT
Astronomical Twilight 4:09 AM EDT 10:15 PM EDT
Moon 2:09 PM EDT (7/16) 12:23 AM EDT (7/16)
Length of Visible Light 15h 28m
Length of Day
14h 28m
First Quarter, 56% of the Moon is Illuminated
Jul 16
First Quarter
Jul 22
Full
Jul 29
Last Quarter
Aug 6
New
Aug 14
First Quarter

Hourly Weather History & Observations

Time (EDT) Temp. Heat Index Dew Point Humidity Pressure Visibility Wind Dir Wind Speed Gust Speed Precip Events Conditions
12:15 AM 79.9 °F - 76.8 °F 90% 30.24 in 10.0 mi Calm Calm - N/A   Clear
12:35 AM 78.3 °F - 77.0 °F 96% 30.24 in 10.0 mi Calm Calm - N/A   Clear
12:55 AM 78.3 °F - 76.5 °F 94% 30.24 in 10.0 mi Calm Calm - N/A   Clear
1:15 AM 77.7 °F - 76.5 °F 96% 30.24 in 10.0 mi Calm Calm - N/A   Clear
1:35 AM 77.2 °F - 76.1 °F 96% 30.24 in 10.0 mi Calm Calm - N/A   Clear
1:55 AM 77.0 °F - 76.6 °F 99% 30.24 in 10.0 mi Calm Calm - N/A   Clear
2:15 AM 77.2 °F - 76.5 °F 98% 30.24 in 10.0 mi Calm Calm - N/A   Clear
2:35 AM 77.2 °F - 75.7 °F 95% 30.23 in 10.0 mi West 3.5 mph - N/A   Clear
2:55 AM 77.4 °F - 76.1 °F 96% 30.23 in 10.0 mi West 3.5 mph - N/A   Clear
3:15 AM 77.4 °F - 75.7 °F 95% 30.23 in 10.0 mi Calm Calm - N/A   Clear
3:35 AM 77.2 °F - 76.1 °F 96% 30.23 in 10.0 mi Calm Calm - N/A   Clear
3:55 AM 77.2 °F - 75.6 °F 95% 30.23 in 10.0 mi Calm Calm - N/A   Clear
4:15 AM 77.0 °F - 75.2 °F 94% 30.22 in 10.0 mi Calm Calm - N/A   Clear
4:35 AM 76.5 °F - 75.0 °F 95% 30.23 in 10.0 mi Calm Calm - N/A   Clear
4:55 AM 76.3 °F - 75.0 °F 96% 30.23 in 10.0 mi Calm Calm - N/A   Clear
5:15 AM 76.1 °F - 74.7 °F 95% 30.23 in 10.0 mi WSW 3.5 mph - N/A   Clear
5:35 AM 75.6 °F - 74.5 °F 96% 30.23 in 10.0 mi WSW 3.5 mph - N/A   Clear
5:55 AM 75.4 °F - 74.7 °F 98% 30.24 in 10.0 mi West 3.5 mph - N/A   Clear
6:15 AM 75.2 °F - 74.7 °F 98% 30.24 in 10.0 mi West 4.6 mph - N/A   Clear
6:35 AM 76.1 °F - 75.2 °F 97% 30.24 in 10.0 mi West 5.8 mph - N/A   Clear
6:55 AM 76.6 °F - 75.2 °F 95% 30.24 in 10.0 mi West 4.6 mph - N/A   Clear
7:15 AM 77.5 °F - 75.6 °F 94% 30.24 in 10.0 mi WNW 3.5 mph - N/A   Clear
7:35 AM 77.9 °F - 75.4 °F 92% 30.23 in 10.0 mi West 4.6 mph - N/A   Clear
7:55 AM 79.2 °F - 76.1 °F 90% 30.23 in 10.0 mi West 4.6 mph - N/A   Clear
8:15 AM 80.6 °F 86.8 °F 76.3 °F 87% 30.23 in 10.0 mi West 4.6 mph - N/A   Clear
8:35 AM 82.0 °F 88.9 °F 75.4 °F 80% 30.24 in 10.0 mi NW 3.5 mph - N/A   Clear
8:55 AM 83.7 °F 92.0 °F 75.7 °F 77% 30.24 in 10.0 mi NNW 3.5 mph - N/A   Clear
9:15 AM 84.4 °F 93.1 °F 75.7 °F 75% 30.24 in 10.0 mi NW 3.5 mph - N/A   Clear
9:35 AM 84.6 °F 93.5 °F 75.7 °F 75% 30.24 in 10.0 mi NW 3.5 mph - N/A   Clear
9:55 AM 86.4 °F 96.4 °F 76.1 °F 71% 30.24 in 10.0 mi NNW 4.6 mph - N/A   Clear
10:15 AM 87.1 °F 98.3 °F 76.5 °F 71% 30.24 in 10.0 mi NNW 3.5 mph - N/A   Clear
10:35 AM 88.3 °F 99.5 °F 76.3 °F 67% 30.23 in 10.0 mi NW 3.5 mph - N/A   Clear
10:55 AM 88.0 °F 99.1 °F 76.3 °F 68% 30.23 in 10.0 mi NW 4.6 mph - N/A   Clear
11:15 AM 89.6 °F 101.6 °F 76.6 °F 65% 30.23 in 10.0 mi NNW 3.5 mph - N/A   Clear
11:55 AM 90.3 °F 104.8 °F 77.9 °F 67% 30.23 in 10.0 mi West 4.6 mph - N/A   Clear
12:15 PM 90.7 °F 104.5 °F 77.5 °F 65% 30.23 in 10.0 mi Calm Calm - N/A   Clear
12:35 PM 91.4 °F 105.8 °F 77.5 °F 64% 30.23 in 10.0 mi NNW 4.6 mph - N/A   Clear
12:55 PM 91.8 °F 107.6 °F 78.3 °F 65% 30.23 in 10.0 mi North 5.8 mph - N/A   Scattered Clouds
1:15 PM 91.4 °F 107.2 °F 78.6 °F 66% 30.23 in 10.0 mi NW 5.8 mph - N/A   Mostly Cloudy
1:35 PM 92.1 °F 108.6 °F 78.8 °F 65% 30.22 in 10.0 mi NW 6.9 mph - N/A   Scattered Clouds
1:55 PM 92.1 °F 107.9 °F 78.4 °F 64% 30.21 in 10.0 mi North 5.8 mph - N/A   Scattered Clouds
2:15 PM 91.6 °F 107.8 °F 78.8 °F 66% 30.21 in 10.0 mi NNW 4.6 mph - N/A   Scattered Clouds
2:35 PM 91.9 °F 108.8 °F 79.2 °F 66% 30.20 in 10.0 mi North 6.9 mph - N/A   Scattered Clouds
2:55 PM 93.2 °F 110.2 °F 79.0 °F 63% 30.20 in 10.0 mi North 5.8 mph - N/A   Scattered Clouds
3:15 PM 92.3 °F 107.6 °F 78.3 °F 63% 30.20 in 10.0 mi NNW 5.8 mph - N/A   Clear
3:35 PM 92.7 °F 107.9 °F 77.7 °F 62% 30.19 in 10.0 mi North 5.8 mph - N/A   Clear
4:55 PM 92.5 °F 101.9 °F 73.4 °F 54% 30.18 in 10.0 mi North 4.6 mph - N/A   Clear
5:15 PM 92.3 °F 102.2 °F 73.9 °F 55% 30.17 in 10.0 mi NE 4.6 mph - N/A   Clear
5:35 PM 91.9 °F 101.3 °F 73.9 °F 55% 30.18 in 10.0 mi NE 4.6 mph - N/A   Clear
5:55 PM 91.4 °F 100.7 °F 73.9 °F 56% 30.17 in 10.0 mi NNE 3.5 mph - N/A   Clear
6:15 PM 91.0 °F 101.0 °F 74.3 °F 58% 30.17 in 10.0 mi NE 3.5 mph - N/A   Clear
6:35 PM 90.7 °F 101.3 °F 75.0 °F 60% 30.17 in 10.0 mi ENE 3.5 mph - N/A   Clear
6:55 PM 89.8 °F 101.5 °F 75.9 °F 64% 30.17 in 10.0 mi NE 3.5 mph - N/A   Clear
7:15 PM 87.1 °F 98.8 °F 77.2 °F 72% 30.18 in 10.0 mi Calm Calm - N/A   Clear
7:35 PM 85.1 °F 95.8 °F 77.2 °F 77% 30.19 in 10.0 mi Calm Calm - N/A   Clear
7:55 PM 84.0 °F 93.7 °F 77.0 °F 79% 30.19 in 10.0 mi Calm Calm - N/A   Clear
8:15 PM 84.0 °F 92.6 °F 75.6 °F 76% 30.19 in 10.0 mi Calm Calm - N/A   Clear
8:35 PM 81.1 °F 88.4 °F 77.2 °F 88% 30.20 in 10.0 mi Calm Calm - N/A   Clear
8:55 PM 80.6 °F 86.4 °F 75.6 °F 85% 30.20 in 10.0 mi Calm Calm - N/A   Scattered Clouds
9:15 PM 79.5 °F - 76.6 °F 91% 30.20 in 10.0 mi Calm Calm - N/A   Clear
9:35 PM 79.0 °F - 77.0 °F 94% 30.21 in 10.0 mi Calm Calm - N/A   Clear
9:55 PM 78.8 °F - 77.2 °F 95% 30.22 in 10.0 mi Calm Calm - N/A   Clear
10:15 PM 77.5 °F - 76.5 °F 96% 30.21 in 10.0 mi Calm Calm - N/A   Clear
10:35 PM 77.7 °F - 76.8 °F 97% 30.21 in 10.0 mi Calm Calm - N/A   Clear
10:55 PM 77.9 °F - 76.8 °F 96% 30.22 in 10.0 mi Calm Calm - N/A   Clear
11:15 PM 77.0 °F - 76.6 °F 99% 30.22 in 7.0 mi Calm Calm - N/A   Clear
11:35 PM 78.1 °F - 77.2 °F 97% 30.21 in 10.0 mi West 3.5 mph - N/A   Clear
11:55 PM 77.4 °F - 76.8 °F 98% 30.21 in 7.0 mi Calm Calm - N/A   Clear